ARCT2: Red River, ARthur City

Data processed at Sat Dec 09 2017 23:29


All information presented herein is the property of the government of the United States of America and may be revised or deleted at any time without prior notice.
Dissemination of this information without the expressed written consent of the Public Affairs Office, Tulsa District U.S. Army Corps of Engineers is strictly prohibited.
These data are gathered electronically and, as presented, have not undergone any form of quality control. These data are not guaranteed to be valid or correct.
Go to home page.
Go to station list.

Upstream stations:

Downstream station:
Previous Day
Next Day
Current Day
    
SHEF ID:       ARCT2     Red River at Arthur City, TX
STATION TYPE:  

               PRECIP     STAGE  STAGE(2)  RIV-FLOW  BAT-LOAD
                   in        ft        ft       cfs      volt
              Ccp-Rev   Ccp-Rev   Ccp-Rev   Ccp-Rev   Ccp-Rev
(US/Central)
12/07 00:00      0.00      4.66      4.16      1173     12.57
12/07 01:00      0.00      4.67      4.14      1182     12.57
12/07 02:00      0.00      4.67      4.16      1182     12.57
12/07 03:00      0.00      4.66      4.18      1428     12.49
12/07 04:00      0.00      4.66      4.20      1428     12.49
12/07 05:00      0.00      4.66      4.18      1428     12.49
12/07 06:00      0.00      4.67      4.22      1437     12.41
12/07 07:00      0.00      4.67      4.26      1437     12.41
12/07 08:00      0.00      4.67      4.20      1437     12.41
12/07 09:00      0.00      4.67      4.31      1437     13.13
12/07 10:00      0.01      4.67      4.30      1437     13.13
12/07 11:00      0.00      4.67      4.35      1437     13.44
12/07 12:00      0.00      4.67      4.33      1437     14.72
12/07 13:00      0.00      4.67      4.27      1437     13.21
12/07 14:00      0.00      4.67      4.29      1437     13.13
12/07 15:00      0.00      4.67      4.33      1437     14.00
12/07 16:00      0.00      4.67      4.30      1437     14.16
12/07 17:00      0.00      4.67      4.30      1437     13.05
12/07 18:00      0.00      4.67      4.28      1437     12.73
12/07 19:00      0.00      4.67      4.25      1437     12.65
12/07 20:00      0.00      4.68      4.20      1446     12.57
12/07 21:00      0.00      4.66      4.17      1428     12.57
12/07 22:00      0.00      4.66      4.16      1428     12.57
12/07 23:00      0.00      4.66      4.13      1428     12.57